2023/07/07 00:00:00, 0.4,21.0
2023/07/07 00:10:00, 0.4,20.9
2023/07/07 00:20:00, 0.5,20.9
2023/07/07 00:30:00, 0.5,20.6
2023/07/07 00:40:00, 0.5,21.1
2023/07/07 00:50:00, 0.4,20.6
2023/07/07 01:00:00, 0.4,20.6
2023/07/07 01:10:00, 0.4,20.5
2023/07/07 01:20:00, 0.4,20.4
2023/07/07 01:30:00, 0.4,20.4
2023/07/07 01:40:00, 0.5,20.4
2023/07/07 01:50:00, 0.6,20.1
2023/07/07 02:00:00, 0.6,20.2
2023/07/07 02:10:00, 0.5,20.3
2023/07/07 02:20:00, 0.5,20.1
2023/07/07 02:30:00, 0.5,20.1
2023/07/07 02:40:00, 0.5,20.1
2023/07/07 02:50:00, 0.5,19.8
2023/07/07 03:00:00, 0.5,20.2
2023/07/07 03:10:00, 0.5,20.0
2023/07/07 03:20:00, 0.5,19.9
2023/07/07 03:30:00, 0.5,19.9
2023/07/07 03:40:00, 0.5,19.7
2023/07/07 03:50:00, 0.5,19.6
2023/07/07 04:00:00, 0.5,19.5
2023/07/07 04:10:00, 0.5,19.3
2023/07/07 04:20:00, 0.5,19.5
2023/07/07 04:30:00, 0.5,19.0
2023/07/07 04:40:00, 0.5,19.0
2023/07/07 04:50:00, 0.5,19.3
2023/07/07 05:00:00, 0.5,18.8
2023/07/07 05:10:00, 0.5,18.8
2023/07/07 05:20:00, 0.5,18.8
2023/07/07 05:30:00, 0.5,19.0
2023/07/07 05:40:00, 0.5,19.5
2023/07/07 05:50:00, 0.5,19.4
2023/07/07 06:00:00, 0.5,19.6
2023/07/07 06:10:00, 0.5,19.5
2023/07/07 06:20:00, 0.5,25.7
2023/07/07 06:30:00, 0.5,28.4
2023/07/07 06:40:00, 0.5,30.3
2023/07/07 06:50:00, 0.3,31.6
2023/07/07 07:00:00, 0.3,31.3
2023/07/07 07:10:00, 0.3,31.1
2023/07/07 07:20:00, 0.3,29.8
2023/07/07 07:30:00, 0.2,28.2
2023/07/07 07:40:00, 0.1,27.7
2023/07/07 07:50:00, 0.2,26.9
2023/07/07 08:00:00, 0.2,26.9
2023/07/07 08:10:00, 0.2,26.9
2023/07/07 08:20:00, 0.2,27.0
2023/07/07 08:30:00, 0.2,28.2
2023/07/07 08:40:00, 0.3,28.7
2023/07/07 08:50:00, 0.4,28.4
2023/07/07 09:00:00, 0.4,29.5
2023/07/07 09:10:00, 0.3,30.8
2023/07/07 09:20:00, 0.4,31.6
2023/07/07 09:30:00, 0.4,30.5
2023/07/07 09:40:00, 0.4,31.9
2023/07/07 09:50:00, 0.4,32.2
2023/07/07 10:00:00, 0.4,32.9
2023/07/07 10:10:00, 0.5,33.2
2023/07/07 10:20:00, 0.4,32.8
2023/07/07 10:30:00, 0.3,33.0
2023/07/07 10:40:00, 0.4,32.5
2023/07/07 10:50:00, 0.3,32.4
2023/07/07 11:00:00, 0.4,33.0
2023/07/07 11:10:00, 0.5,32.8
2023/07/07 11:20:00, 0.4,31.9
2023/07/07 11:30:00, 0.4,31.0
2023/07/07 11:40:00, 0.5,31.2
2023/07/07 11:50:00, 0.5,31.4
2023/07/07 12:00:00, 0.4,31.9
2023/07/07 12:10:00, 0.5,31.6
2023/07/07 12:20:00, 0.5,31.3
2023/07/07 12:30:00, 0.5,31.2
2023/07/07 12:40:00, 0.5,31.3
2023/07/07 12:50:00, 0.5,30.4
2023/07/07 13:00:00, 0.5,30.1
2023/07/07 13:10:00, 0.5,29.8
2023/07/07 13:20:00, 0.3,29.6
2023/07/07 13:30:00, 0.3,29.1
2023/07/07 13:40:00, 0.3,28.8
2023/07/07 13:50:00, 0.3,28.8
2023/07/07 14:00:00, 0.2,28.9
2023/07/07 14:10:00, 0.2,29.1
2023/07/07 14:20:00, 0.2,29.6
2023/07/07 14:30:00, 0.3,29.8
2023/07/07 14:40:00, 0.3,29.4
2023/07/07 14:50:00, 0.3,29.4
2023/07/07 15:00:00, 0.3,29.3
2023/07/07 15:10:00, 0.3,28.9
2023/07/07 15:20:00, 0.3,28.5
2023/07/07 15:30:00, 0.3,27.9
2023/07/07 15:40:00, 0.3,27.4
2023/07/07 15:50:00, 0.4,27.0
2023/07/07 16:00:00, 0.3,26.7
2023/07/07 16:10:00, 0.3,26.2
2023/07/07 16:20:00, 0.3,25.8
2023/07/07 16:30:00, 0.4,25.3
2023/07/07 16:40:00, 0.3,25.2
2023/07/07 16:50:00, 0.4,25.0
2023/07/07 17:00:00, 0.4,25.3
2023/07/07 17:10:00, 0.4,25.0
2023/07/07 17:20:00, 0.4,25.1
2023/07/07 17:30:00, 0.4,24.9
2023/07/07 17:40:00, 0.4,25.0
2023/07/07 17:50:00, 0.4,24.8
2023/07/07 18:00:00, 0.4,24.6
2023/07/07 18:10:00, 0.4,23.7
2023/07/07 18:20:00, 0.4,23.7
2023/07/07 18:30:00, 0.4,23.3
2023/07/07 18:40:00, 0.4,23.1
2023/07/07 18:50:00, 0.5,22.9
2023/07/07 19:00:00, 0.4,22.8
2023/07/07 19:10:00, 0.4,22.7
2023/07/07 19:20:00, 0.4,22.6
2023/07/07 19:30:00, 0.5,22.4
2023/07/07 19:40:00, 0.5,22.2
2023/07/07 19:50:00, 0.5,22.3
2023/07/07 20:00:00, 0.5,22.1
2023/07/07 20:10:00, 0.4,21.9
2023/07/07 20:20:00, 0.4,21.8
2023/07/07 20:30:00, 0.4,21.6
2023/07/07 20:40:00, 0.5,21.3
2023/07/07 20:50:00, 0.4,21.5
2023/07/07 21:00:00, 0.5,21.3
2023/07/07 21:10:00, 0.4,21.4
2023/07/07 21:20:00, 0.4,21.4
2023/07/07 21:30:00, 0.4,21.4
2023/07/07 21:40:00, 0.4,21.5
2023/07/07 21:50:00, 0.4,21.9
2023/07/07 22:00:00, 0.5,22.3
2023/07/07 22:10:00, 0.4,22.4
2023/07/07 22:20:00, 0.4,22.4
2023/07/07 22:30:00, 0.4,22.6
2023/07/07 22:40:00, 0.5,23.1
2023/07/07 22:50:00, 0.5,22.9
2023/07/07 23:00:00, 0.4,22.8
2023/07/07 23:10:00, 0.5,22.8
2023/07/07 23:20:00, 0.5,22.8
2023/07/07 23:30:00, 0.5,22.7
2023/07/07 23:40:00, 0.5,22.9
2023/07/07 23:50:00, 0.5,23.0
